[Date Prev][Date Next][Thread Prev][Thread Next] - [Date Index][Thread Index][Author Index]
2 Line ISS Keps 6-1
- Subject: [sarex] 2 Line ISS Keps 6-1
- From: "Dave Larsen PhD" <doc@xxxxxxxxxxx>
- Date: Sat, 1 Jun 2002 02:56:57 -0700
ISS
1 25544U 98067A 02152.20702546 .00025098 00000-0 30729-3 0 5158
2 25544 51.6360 133.2701 0006528 136.6254 41.8837 15.60194139201539
----
Via the sarex mailing list at AMSAT.ORG courtesy of AMSAT-NA.
To unsubscribe, send "unsubscribe sarex" to Majordomo@amsat.org
AMSAT Home